Meacham, OR

7:33 PM PDT on September 23, 2017 (GMT -0700)
Meacham

Weather History for KMEH - April, 2013

Change the Weather History Date:

Wednesday, April 10, 2013

  Actual Average Record
Temperature  
Mean Temperature 42 °F -  
Max Temperature 57 °F 47 °F 64 °F (2012)
Min Temperature 30 °F 25 °F 10 °F (1999)
Degree Days  
Heating Degree Days 22    
Moisture  
Dew Point 37 °F    
Average Humidity 82    
Maximum Humidity 93    
Minimum Humidity 54    
Precipitation  
Precipitation 0.42 in - - ()
Sea Level Pressure  
Sea Level Pressure 30.11 in    
Wind  
Wind Speed 2 mph (West)    
Max Wind Speed 15 mph    
Max Gust Speed 26 mph    
Visibility 8 miles    
Events Fog , Rain    
Averages and records for this station are not official NWS values.
T = Trace of Precipitation, MM = Missing Value Source: NWS Daily Summary

Daily Weather History Graph

Daily Weather History Graph

Search for Another Location

Airport or City:

Trip Planner

Search our weather history database for the weather conditions in past years. The results will help you decide how hot, cold, wet, or windy it might be!

Date:

Astronomy

Apr. 10, 2013 Rise Set
Actual Time 6:16 AM PDT 7:33 PM PDT
Civil Twilight 5:45 AM PDT 8:04 PM PDT
Nautical Twilight 5:09 AM PDT 8:41 PM PDT
Astronomical Twilight 4:30 AM PDT 9:20 PM PDT
Moon 6:13 AM PDT (4/10) 8:17 PM PDT (4/10)
Length of Visible Light 14h 18m
Length of Day
13h 17m
New Moon, 0% of the Moon is Illuminated
Apr 10
New Moon
Apr 18
First Quarter
Apr 25
Full
May 2
Last Quarter
May 9
New

Hourly Weather History & Observations

Time (PDT) Temp. Windchill Dew Point Humidity Pressure Visibility Wind Dir Wind Speed Gust Speed Precip Events Conditions
12:56 AM 30.9 °F - 28.0 °F 89% 30.26 in 9.0 mi Calm Calm - N/A   Overcast
1:56 AM 33.1 °F - 30.0 °F 89% 30.23 in 10.0 mi Calm Calm - N/A   Overcast
2:56 AM 30.9 °F - 28.9 °F 92% 30.22 in 10.0 mi Calm Calm - N/A   Clear
3:56 AM 32.0 °F - 30.0 °F 92% 30.21 in 10.0 mi Calm Calm - N/A   Overcast
4:56 AM 33.1 °F - 30.9 °F 92% 30.19 in 10.0 mi Calm Calm - N/A   Mostly Cloudy
5:56 AM 34.0 °F - 32.0 °F 92% 30.18 in 10.0 mi Calm Calm - N/A   Overcast
6:40 AM 35.6 °F - 33.8 °F 93% 30.14 in 10.0 mi Calm Calm - N/A   Overcast
6:56 AM 35.1 °F - 33.1 °F 92% 30.18 in 10.0 mi Calm Calm - N/A   Overcast
7:03 AM 35.6 °F - 33.8 °F 93% 30.14 in 10.0 mi Calm Calm - N/A   Overcast
7:24 AM 37.4 °F - 33.8 °F 87% 30.14 in 10.0 mi Calm Calm - N/A   Overcast
7:56 AM 37.9 °F - 35.1 °F 89% 30.18 in 10.0 mi Calm Calm - N/A   Overcast
8:20 AM 39.2 °F - 35.6 °F 87% 30.12 in 10.0 mi Calm Calm - N/A   Overcast
8:28 AM 39.2 °F - 35.6 °F 87% 30.12 in 10.0 mi Calm Calm - N/A   Overcast
8:36 AM 39.2 °F - 37.4 °F 93% 30.11 in 10.0 mi Calm Calm - N/A   Overcast
8:56 AM 42.1 °F - 37.0 °F 82% 30.16 in 10.0 mi Calm Calm - N/A   Overcast
9:20 AM 46.4 °F - 37.4 °F 71% 30.09 in 10.0 mi Calm Calm - N/A   Mostly Cloudy
9:56 AM 51.1 °F - 39.9 °F 66% 30.10 in 10.0 mi Calm Calm - N/A   Overcast
10:56 AM 54.0 °F - 39.9 °F 59% 30.08 in 10.0 mi Variable 3.5 mph - N/A   Scattered Clouds
11:56 AM 55.9 °F - 39.9 °F 55% 30.05 in 10.0 mi Variable 4.6 mph - N/A   Mostly Cloudy
12:56 PM 55.9 °F - 39.9 °F 55% 30.03 in 10.0 mi Variable 5.8 mph - N/A   Overcast
1:32 PM 48.2 °F - 44.6 °F 87% 30.04 in 2.5 mi West 9.2 mph 26.5 mph 0.02 in Rain Rain
1:47 PM 46.4 °F 44.3 °F 44.6 °F 93% 30.04 in 2.0 mi Variable 4.6 mph 18.4 mph 0.06 in Rain Rain
1:56 PM 48.0 °F - 45.0 °F 89% 30.07 in 2.5 mi Variable 4.6 mph - 0.09 in Rain Light Rain
2:04 PM 46.4 °F 45.2 °F 44.6 °F 93% 30.03 in 3.0 mi Variable 3.5 mph - 0.00 in Rain Light Rain
2:12 PM 46.4 °F 43.5 °F 44.6 °F 93% 30.03 in 1.8 mi Variable 5.8 mph - 0.03 in Rain Rain
2:34 PM 46.4 °F 44.3 °F 44.6 °F 93% 30.02 in 0.5 mi Variable 4.6 mph - 0.17 in Fog , Rain Heavy Rain
2:56 PM 45.0 °F 39.7 °F 43.0 °F 93% 30.09 in 1.8 mi WNW 10.4 mph 26.5 mph 0.31 in Rain Rain
3:03 PM 44.6 °F 40.7 °F 42.8 °F 93% 30.05 in 3.0 mi Variable 6.9 mph 26.5 mph 0.02 in Rain Light Rain
3:23 PM 44.6 °F 41.4 °F 42.8 °F 93% 30.06 in 10.0 mi Variable 5.8 mph - 0.02 in   Overcast
3:56 PM 46.9 °F - 41.0 °F 80% 30.08 in 10.0 mi Variable 5.8 mph - 0.02 in   Mostly Cloudy
4:03 PM 46.4 °F 43.5 °F 42.8 °F 87% 30.03 in 10.0 mi Variable 5.8 mph 18.4 mph N/A   Overcast
4:56 PM 50.0 °F - 39.0 °F 66% 30.04 in 10.0 mi West 10.4 mph 26.5 mph N/A   Clear
5:56 PM 48.9 °F - 33.1 °F 54% 30.06 in 10.0 mi West 15.0 mph 25.3 mph N/A   Clear
6:56 PM 46.0 °F 44.8 °F 34.0 °F 63% 30.08 in 10.0 mi Variable 3.5 mph - N/A   Clear
7:56 PM 43.0 °F 40.3 °F 34.0 °F 71% 30.09 in 10.0 mi Variable 4.6 mph - N/A   Clear
8:56 PM 39.9 °F 35.8 °F 33.1 °F 77% 30.13 in 10.0 mi Variable 5.8 mph - N/A   Clear
9:56 PM 39.0 °F 36.8 °F 30.9 °F 73% 30.13 in 10.0 mi Variable 3.5 mph - N/A   Clear
10:56 PM 37.0 °F - 30.0 °F 76% 30.14 in 10.0 mi Calm Calm - N/A   Partly Cloudy
11:56 PM 36.0 °F 33.3 °F 28.9 °F 76% 30.15 in 10.0 mi Variable 3.5 mph - N/A   Partly Cloudy